N7LK Weather Reports


time (UTC)temp
C
wind
direction
speed
KPH
gust
KPH
rain 1hr
cm
rain 24hr
cm
rain mn
cm
humidity
%
barometer
mb
20260506051336 21 283 1.6 16.1 0.00 0.00 0.00 31 1010.7
20260506050327 21 279 3.2 14.5 0.00 0.00 0.00 31 1010.5
20260506044403 21 317 3.2 11.3 0.00 0.00 0.00 30 1010.4
20260506043330 21 265 6.4 12.9 0.00 0.00 0.00 30 1010.3
20260506042338 21 196 4.8 12.9 0.00 0.00 0.00 30 1010.3
20260506041330 21 270 1.6 14.5 0.00 0.00 0.00 29 1010.1
20260506040338 21 233 8.0 16.1 0.00 0.00 0.00 29 1010.0
20260506035327 21 226 0.0 6.4 0.00 0.00 0.00 28 1009.9
20260506034340 22 228 1.6 9.7 0.00 0.00 0.00 28 1009.8
20260506033329 22 269 1.6 17.7 0.00 0.00 0.00 27 1009.6
20260506032355 22 256 11.3 20.9 0.00 0.00 0.00 27 1009.5
20260506031343 22 257 6.4 16.1 0.00 0.00 0.00 27 1009.3
20260506030335 22 270 6.4 14.5 0.00 0.00 0.00 27 1009.2
20260506025344 22 280 4.8 19.3 0.00 0.00 0.00 26 1009.0
20260506024331 22 285 1.6 16.1 0.00 0.00 0.00 27 1009.0
20260506023338 22 268 3.2 17.7 0.00 0.00 0.00 26 1008.7
20260506022330 22 234 6.4 19.3 0.00 0.00 0.00 26 1008.7
20260506021337 23 232 6.4 20.9 0.00 0.00 0.00 25 1008.5
20260506020345 23 240 6.4 16.1 0.00 0.00 0.00 24 1008.4
20260506015333 23 295 3.2 16.1 0.00 0.00 0.00 24 1008.3
20260506014344 23 252 11.3 19.3 0.00 0.00 0.00 24 1008.1
20260506013331 24 248 0.0 14.5 0.00 0.00 0.00 25 1008.1
20260506012339 24 258 0.0 17.7 0.00 0.00 0.00 25 1008.0
20260506011347 24 182 4.8 17.7 0.00 0.00 0.00 25 1007.9
20260506010358 24 223 3.2 17.7 0.00 0.00 0.00 25 1007.9
20260506005405 24 300 4.8 24.1 0.00 0.00 0.00 25 1007.9
20260506004353 24 274 8.0 24.1 0.00 0.00 0.00 25 1007.8
20260506003340 24 263 11.3 22.5 0.00 0.00 0.00 25 1007.7
20260506002331 25 168 9.7 24.1 0.00 0.00 0.00 24 1007.6
20260506001338 25 181 6.4 19.3 0.00 0.00 0.00 24 1007.5
20260506000346 25 263 11.3 25.7 0.00 0.00 0.00 24 1007.5
20260505235333 25 240 3.2 22.5 0.00 0.00 0.00 25 1007.5
20260505234341 25 333 3.2 17.7 0.00 0.00 0.00 25 1007.4
20260505233332 25 302 4.8 25.7 0.00 0.00 0.00 26 1007.4
20260505232340 25 298 8.0 17.7 0.00 0.00 0.00 25 1007.5
20260505231328 24 222 6.4 16.1 0.00 0.00 0.00 27 1007.5
20260505230335 24 263 12.9 25.7 0.00 0.00 0.00 25 1007.6
20260505225407 24 257 3.2 20.9 0.00 0.00 0.00 27 1007.6
20260505224334 24 321 6.4 19.3 0.00 0.00 0.00 27 1007.8
20260505223403 25 315 6.4 25.7 0.00 0.00 0.00 26 1007.9
20260505222329 25 262 9.7 20.9 0.00 0.00 0.00 26 1008.0
20260505221401 25 270 9.7 24.1 0.00 0.00 0.00 26 1008.1
20260505220407 25 207 6.4 27.4 0.00 0.00 0.00 26 1008.3
20260505215334 26 256 4.8 25.7 0.00 0.00 0.00 25 1008.2
20260505214342 25 234 9.7 19.3 0.00 0.00 0.00 26 1008.2
20260505213332 25 259 9.7 20.9 0.00 0.00 0.00 26 1008.3
20260505212340 25 280 6.4 12.9 0.00 0.00 0.00 25 1008.4
20260505211329 25 279 12.9 24.1 0.00 0.00 0.00 26 1008.5
20260505210336 25 260 8.0 25.7 0.00 0.00 0.00 27 1008.7
20260505205328 25 221 6.4 20.9 0.00 0.00 0.00 26 1008.7
20260505204334 25 248 9.7 27.4 0.00 0.00 0.00 27 1008.8
20260505203342 25 203 6.4 19.3 0.00 0.00 0.00 28 1008.8
20260505202329 24 215 16.1 30.6 0.00 0.00 0.00 29 1008.9
20260505201336 25 155 8.0 19.3 0.00 0.00 0.00 29 1008.9
20260505200346 25 221 8.0 22.5 0.00 0.00 0.00 31 1009.0
20260505195334 24 246 6.4 19.3 0.00 0.00 0.00 31 1009.0
20260505194342 24 231 6.4 22.5 0.00 0.00 0.00 31 1009.2
20260505193333 24 239 4.8 19.3 0.00 0.00 0.00 32 1009.2
20260505192340 24 242 4.8 20.9 0.00 0.00 0.00 32 1009.2
20260505191346 23 219 3.2 14.5 0.00 0.00 0.00 34 1009.4
20260505190334 23 234 6.4 16.1 0.00 0.00 0.00 34 1009.5
20260505185342 23 275 4.8 12.9 0.00 0.00 0.00 37 1009.5
20260505184333 23 246 8.0 17.7 0.00 0.00 0.00 38 1009.8
20260505183401 23 235 6.4 12.9 0.00 0.00 0.00 37 1009.6
20260505182327 23 240 4.8 19.3 0.00 0.00 0.00 40 1009.8
20260505181335 23 304 6.4 16.1 0.00 0.00 0.00 38 1009.9
20260505180406 22 257 8.0 16.1 0.00 0.00 0.00 40 1009.8
20260505175333 22 280 9.7 16.1 0.00 0.00 0.00 41 1009.9
20260505174341 22 273 4.8 17.7 0.00 0.00 0.00 42 1009.9
20260505173329 22 34 0.0 16.1 0.00 0.00 0.00 42 1009.9
20260505172340 22 238 8.0 16.1 0.00 0.00 0.00 44 1009.9
20260505171330 22 265 6.4 14.5 0.00 0.00 0.00 43 1009.9
20260505170356 21 228 1.6 14.5 0.00 0.00 0.00 43 1010.0
20260505165344 21 269 3.2 9.7 0.00 0.00 0.00 45 1009.9
20260505164336 21 238 4.8 14.5 0.00 0.00 0.00 46 1010.0
20260505163344 20 287 1.6 11.3 0.00 0.00 0.00 47 1010.0
20260505162331 20 279 4.8 11.3 0.00 0.00 0.00 51 1010.0
20260505161359 20 150 4.8 9.7 0.00 0.00 0.00 53 1010.1
20260505160331 20 223 4.8 16.1 0.00 0.00 0.00 55 1010.2
20260505153332 20 281 6.4 16.1 0.00 0.00 0.00 53 1010.1
20260505152344 20 249 9.7 20.9 0.00 0.00 0.00 53 1010.0
20260505151331 20 267 4.8 14.5 0.00 0.00 0.00 54 1009.9
20260505150338 20 273 8.0 17.7 0.00 0.00 0.00 54 1009.9
20260505140350 18 185 0.0 1.6 0.00 0.00 0.00 55 1009.7
20260505124333 18 220 0.0 3.2 0.00 0.00 0.00 54 1009.1
20260505123340 18 182 1.6 6.4 0.00 0.00 0.00 54 1008.9
20260505122327 18 207 1.6 6.4 0.00 0.00 0.00 53 1008.9
20260505121333 18 201 3.2 8.0 0.00 0.00 0.00 53 1008.8
20260505120403 18 226 3.2 9.7 0.00 0.00 0.00 53 1008.7
20260505115327 18 200 3.2 8.0 0.00 0.00 0.00 52 1008.7
20260505114334 19 265 1.6 6.4 0.00 0.00 0.00 52 1008.7
20260505113340 19 247 0.0 6.4 0.00 0.00 0.00 52 1008.6
20260505112332 19 235 0.0 8.0 0.00 0.00 0.00 51 1008.7
20260505111338 19 219 0.0 8.0 0.00 0.00 0.00 50 1008.4
20260505110346 20 262 3.2 6.4 0.00 0.00 0.00 49 1008.3
20260505101342 20 255 1.6 11.3 0.00 0.00 0.00 47 1009.0
20260505100333 20 247 1.6 16.1 0.00 0.00 0.00 46 1009.2
20260505095340 21 261 4.8 11.3 0.00 0.00 0.00 44 1009.3
20260505094327 21 265 0.0 11.3 0.00 0.00 0.00 43 1009.3
20260505093334 21 281 0.0 3.2 0.00 0.00 0.00 43 1009.4
20260505092344 21 245 3.2 9.7 0.00 0.00 0.00 42 1009.5
20260505091332 21 265 0.0 6.4 0.00 0.00 0.00 41 1009.6
20260505090337 21 231 0.0 3.2 0.00 0.00 0.00 40 1009.6
20260505085344 21 214 0.0 0.0 0.00 0.00 0.00 40 1009.5
20260505084334 21 250 0.0 3.2 0.00 0.00 0.00 39 1009.7
20260505083403 21 234 0.0 6.4 0.00 0.00 0.00 39 1009.9
20260505082330 21 246 1.6 8.0 0.00 0.00 0.00 39 1010.0
20260505081336 21 189 0.0 6.4 0.00 0.00 0.00 38 1010.0
20260505080327 21 207 0.0 6.4 0.00 0.00 0.00 38 1009.7
20260505075334 21 205 3.2 8.0 0.00 0.00 0.00 38 1010.1
20260505074341 21 211 3.2 9.7 0.00 0.00 0.00 37 1010.0
20260505073328 22 179 4.8 11.3 0.00 0.00 0.00 37 1009.9
20260505072339 22 216 6.4 12.9 0.00 0.00 0.00 36 1009.9
20260505071345 22 171 6.4 9.7 0.00 0.00 0.00 35 1010.1
20260505070352 22 147 6.4 11.3 0.00 0.00 0.00 36 1009.9
20260505065358 22 202 4.8 11.3 0.00 0.00 0.00 39 1010.1
20260505064343 22 194 0.0 4.8 0.00 0.00 0.00 42 1009.8
20260505063335 22 244 1.6 9.7 0.00 0.00 0.00 41 1009.7
20260505062342 22 271 1.6 6.4 0.00 0.00 0.00 41 1009.6
20260505061329 22 270 3.2 9.7 0.00 0.00 0.00 41 1009.5
20260505060335 22 257 1.6 9.7 0.00 0.00 0.00 41 1009.4